• In Hungary
  • List of Countries
  • For 7 days
  • Water Temperature
  • Satellite Maps
  • Weather Map
  • News
  • Weather Widgets
  • user-avatar
    Login

    Hourly Weather Rixensart

    Today, 23 February, Friday

    Time Temperature Precipitation Wind Pressure Humidity
    00:00 -4°C° 0 mm 4 mps 757 mmHg 66%
    01:00 -4°C° 0 mm 4 mps 757 mmHg 66%
    02:00 -4°C° 0 mm 4 mps 757 mmHg 67%
    03:00 -4°C° 0 mm 4 mps 756 mmHg 67%
    04:00 -4°C° 0 mm 4 mps 756 mmHg 67%
    05:00 -4°C° 0 mm 4 mps 756 mmHg 68%
    06:00 -5°C° 0 mm 4 mps 756 mmHg 71%
    07:00 -5°C° 0 mm 5 mps 756 mmHg 65%
    08:00 -4°C° 0 mm 5 mps 756 mmHg 59%
    09:00 -3°C° 0 mm 6 mps 756 mmHg 54%
    10:00 -2°C° 0 mm 6 mps 756 mmHg 49%
    11:00 -1°C° 0 mm 6 mps 756 mmHg 44%
    12:00 +1°C° 0 mm 6 mps 756 mmHg 39%
    13:00 +1°C° 0 mm 6 mps 755 mmHg 39%
    14:00 +1°C° 0 mm 6 mps 755 mmHg 39%
    15:00 +1°C° 0 mm 6 mps 755 mmHg 39%
    16:00 -1°C° 0 mm 6 mps 755 mmHg 42%
    17:00 -1°C° 0 mm 5 mps 755 mmHg 46%
    18:00 -4°C° 0 mm 5 mps 755 mmHg 49%
    19:00 -4°C° 0 mm 5 mps 755 mmHg 48%
    20:00 -4°C° 0 mm 5 mps 755 mmHg 47%
    21:00 -5°C° 0 mm 5 mps 755 mmHg 45%
    22:00 -5°C° 0 mm 5 mps 755 mmHg 44%
    23:00 -5°C° 0 mm 5 mps 756 mmHg 42%

    Tomorrow, 24 February, Saturday

    Time Temperature Precipitation Wind Pressure Humidity
    00:00 -5°C° 0 mm 4 mps 756 mmHg 41%
    01:00 -6°C° 0 mm 5 mps 756 mmHg 40%
    02:00 -6°C° 0 mm 5 mps 756 mmHg 39%
    03:00 -6°C° 0 mm 5 mps 756 mmHg 38%
    04:00 -6°C° 0 mm 5 mps 756 mmHg 37%
    05:00 -6°C° 0 mm 5 mps 756 mmHg 35%
    06:00 -6°C° 0 mm 5 mps 756 mmHg 34%
    07:00 -5°C° 0 mm 6 mps 756 mmHg 31%
    08:00 -4°C° 0 mm 7 mps 756 mmHg 27%
    09:00 -2°C° 0 mm 7 mps 757 mmHg 24%
    10:00 -1°C° 0 mm 8 mps 757 mmHg 26%
    11:00 0°C° 0 mm 8 mps 757 mmHg 28%
    12:00 +2°C° 0 mm 8 mps 757 mmHg 30%
    13:00 +2°C° 0 mm 8 mps 757 mmHg 33%
    14:00 +2°C° 0 mm 8 mps 757 mmHg 37%
    15:00 +2°C° 0 mm 8 mps 756 mmHg 40%
    16:00 0°C° 0 mm 7 mps 757 mmHg 45%
    17:00 -1°C° 0 mm 7 mps 757 mmHg 50%
    18:00 -3°C° 0 mm 6 mps 758 mmHg 55%
    19:00 -3°C° 0 mm 6 mps 758 mmHg 53%
    20:00 -4°C° 0 mm 6 mps 758 mmHg 50%
    21:00 -4°C° 0 mm 6 mps 758 mmHg 48%
    22:00 -5°C° 0 mm 6 mps 759 mmHg 48%
    23:00 -5°C° 0 mm 6 mps 759 mmHg 47%

    Day after tomorrow, 25 February, Sunday

    Time Temperature Precipitation Wind Pressure Humidity
    00:00 -6°C° 0 mm 6 mps 759 mmHg 46%
    01:00 -6°C° 0 mm 6 mps 759 mmHg 46%
    02:00 -6°C° 0 mm 6 mps 759 mmHg 45%
    03:00 -6°C° 0 mm 6 mps 759 mmHg 45%
    04:00 -8°C° 0 mm 6 mps 759 mmHg 44%
    05:00 -8°C° 0 mm 6 mps 760 mmHg 42%
    06:00 -8°C° 0 mm 6 mps 760 mmHg 40%
    07:00 -7°C° 0 mm 7 mps 760 mmHg 37%
    08:00 -7°C° 0 mm 7 mps 761 mmHg 33%
    09:00 -6°C° 0 mm 8 mps 761 mmHg 29%
    10:00 -5°C° 0 mm 8 mps 761 mmHg 27%
    11:00 -4°C° 0 mm 8 mps 761 mmHg 25%
    12:00 -4°C° 0 mm 8 mps 761 mmHg 22%
    13:00 -2°C° 0 mm 7 mps 761 mmHg 24%
    14:00 -2°C° 0 mm 7 mps 760 mmHg 25%
    15:00 -2°C° 0 mm 7 mps 760 mmHg 27%
    16:00 -3°C° 0 mm 7 mps 760 mmHg 32%
    17:00 -5°C° 0 mm 6 mps 761 mmHg 36%
    18:00 -6°C° 0 mm 5 mps 761 mmHg 41%
    19:00 -6°C° 0 mm 5 mps 761 mmHg 44%
    20:00 -6°C° 0 mm 5 mps 761 mmHg 47%
    21:00 -6°C° 0 mm 5 mps 762 mmHg 50%
    22:00 -7°C° 0 mm 5 mps 762 mmHg 52%
    23:00 -7°C° 0 mm 5 mps 762 mmHg 54%

    26 February, Monday

    Time Temperature Precipitation Wind Pressure Humidity
    00:00 -7°C° 0 mm 5 mps 762 mmHg 57%
    01:00 -7°C° 0 mm 5 mps 762 mmHg 57%
    02:00 -7°C° 0 mm 5 mps 762 mmHg 57%
    03:00 -7°C° 0 mm 5 mps 762 mmHg 56%
    04:00 -7°C° 0 mm 5 mps 762 mmHg 56%
    05:00 -8°C° 0 mm 5 mps 762 mmHg 56%
    06:00 -9°C° 0 mm 6 mps 762 mmHg 55%
    07:00 -8°C° 0 mm 6 mps 762 mmHg 52%
    08:00 -8°C° 0 mm 7 mps 762 mmHg 48%
    09:00 -7°C° 0 mm 8 mps 762 mmHg 45%
    10:00 -7°C° 0 mm 8 mps 761 mmHg 41%
    11:00 -6°C° 0 mm 8 mps 761 mmHg 37%
    12:00 -5°C° 0 mm 8 mps 761 mmHg 33%
    13:00 -5°C° 0 mm 8 mps 760 mmHg 33%
    14:00 -5°C° 0 mm 8 mps 760 mmHg 33%
    15:00 -5°C° 0 mm 8 mps 759 mmHg 32%
    16:00 -6°C° 0 mm 7 mps 759 mmHg 36%
    17:00 -6°C° 0 mm 6 mps 759 mmHg 39%
    18:00 -6°C° 0 mm 5 mps 759 mmHg 43%
    19:00 -7°C° 0 mm 5 mps 759 mmHg 44%
    20:00 -7°C° 0 mm 5 mps 760 mmHg 46%
    21:00 -7°C° 0 mm 5 mps 760 mmHg 48%
    22:00 -7°C° 0 mm 5 mps 759 mmHg 50%
    23:00 -7°C° 0 mm 5 mps 759 mmHg 52%

    27 February, Tuesday

    Time Temperature Precipitation Wind Pressure Humidity
    00:00 -8°C° 0 mm 5 mps 759 mmHg 55%
    01:00 -8°C° 0 mm 5 mps 759 mmHg 56%
    02:00 -8°C° 0 mm 5 mps 758 mmHg 58%
    03:00 -8°C° 0 mm 5 mps 758 mmHg 60%
    04:00 -8°C° 0 mm 5 mps 758 mmHg 58%
    05:00 -8°C° 0 mm 5 mps 758 mmHg 56%
    06:00 -10°C° 0 mm 5 mps 758 mmHg 54%
    07:00 -9°C° 0 mm 6 mps 758 mmHg 49%
    08:00 -9°C° 0 mm 6 mps 758 mmHg 45%
    09:00 -8°C° 0 mm 7 mps 758 mmHg 40%
    10:00 -7°C° 0 mm 7 mps 757 mmHg 36%
    11:00 -6°C° 0 mm 7 mps 757 mmHg 32%
    12:00 -6°C° 0 mm 7 mps 757 mmHg 28%
    13:00 -4°C° 0 mm 7 mps 756 mmHg 27%
    14:00 -4°C° 0 mm 7 mps 756 mmHg 26%
    15:00 -4°C° 0 mm 7 mps 756 mmHg 25%
    16:00 -5°C° 0 mm 6 mps 756 mmHg 28%
    17:00 -6°C° 0 mm 5 mps 756 mmHg 30%
    18:00 -7°C° 0 mm 4 mps 756 mmHg 33%
    19:00 -7°C° 0 mm 4 mps 756 mmHg 35%
    20:00 -7°C° 0 mm 4 mps 756 mmHg 36%
    21:00 -8°C° 0 mm 4 mps 756 mmHg 38%
    22:00 -8°C° 0 mm 4 mps 756 mmHg 40%
    23:00 -7°C° 0 mm 3 mps 756 mmHg 41%

    28 February, Wednesday

    Time Temperature Precipitation Wind Pressure Humidity
    00:00 -7°C° 0 mm 3 mps 756 mmHg 42%
    01:00 -8°C° 0 mm 3 mps 756 mmHg 44%
    02:00 -8°C° 0 mm 3 mps 756 mmHg 46%
    03:00 -8°C° 0 mm 3 mps 756 mmHg 47%
    04:00 -8°C° 0 mm 3 mps 756 mmHg 48%
    05:00 -8°C° 0 mm 3 mps 756 mmHg 48%
    06:00 -9°C° 0 mm 3 mps 756 mmHg 49%
    07:00 -9°C° 0 mm 4 mps 756 mmHg 42%
    08:00 -8°C° 0 mm 5 mps 756 mmHg 35%
    09:00 -9°C° 0 mm 6 mps 756 mmHg 28%
    10:00 -8°C° 0 mm 6 mps 756 mmHg 25%
    11:00 -7°C° 0 mm 7 mps 755 mmHg 23%
    12:00 -7°C° 0 mm 7 mps 755 mmHg 20%
    13:00 -6°C° 0 mm 7 mps 754 mmHg 21%
    14:00 -6°C° 0 mm 7 mps 754 mmHg 22%
    15:00 -6°C° 0 mm 7 mps 753 mmHg 22%
    16:00 -6°C° 0 mm 6 mps 753 mmHg 26%
    17:00 -8°C° 0 mm 6 mps 753 mmHg 29%
    18:00 -8°C° 0 mm 5 mps 753 mmHg 32%
    19:00 -9°C° 0 mm 6 mps 753 mmHg 31%
    20:00 -9°C° 0 mm 6 mps 753 mmHg 31%
    21:00 -9°C° 0 mm 6 mps 753 mmHg 30%
    22:00 -10°C° 0 mm 6 mps 752 mmHg 30%
    23:00 -11°C° 0 mm 7 mps 752 mmHg 30%
    Show more